Location: *
(60.1759°S, 155.0663°W)
Time: 10:50:48
(UTC+00:00)

Cosmos 1933 Rocket - Pass Details

Date: 17 September 2019
Orbit: 607 x 630 km, 82.5° (Epoch: 14 October)

Event Time Altitude Azimuth Distance (km) Brightness Sun altitude
Exits shadow 14:46:11 13° 325° (NW) 1,815 5.5 -12.8°
Maximum altitude 14:50:03 52° 250° (WSW) 784 3.8 -12.3°
Drops below altitude 10° 14:54:25 10° 172° (S) 2,015 6.5 -11.8°
Sets 14:56:43 0° 167° (SSE) 2,925 7.5 -11.5°
